EW1898 Weather Reports


time (UTC)temp
F
wind
direction
speed
knots
gust
knots
rain 1hr
in
rain 24hr
in
rain mn
in
humidity
%
barometer
mb
20260507003006 58 305 0.0 1.7 0.00 0.16 0.16 97 1005.0
20260507001505 58 23 0.0 0.9 0.00 0.16 0.16 97 1004.9
20260507000019 58 335 0.0 2.6 0.02 0.16 0.16 97 1004.9
20260506234504 58 284 0.0 0.9 0.03 0.16 0.16 97 1004.9
20260506233004 58 294 0.0 0.9 0.04 0.16 0.16 97 1004.8
20260506231502 58 95 0.0 2.6 0.05 0.16 0.16 97 1004.9
20260506230001 58 319 0.0 0.9 0.06 0.14 0.14 97 1004.9
20260506224604 58 291 0.0 1.7 0.06 0.13 0.13 97 1005.0
20260506223126 58 350 0.0 0.0 0.06 0.12 0.12 96 1005.0
20260506221603 58 288 0.0 0.0 0.05 0.11 0.11 96 1005.1
20260506220057 59 338 0.0 1.7 0.02 0.08 0.08 96 1005.1
20260506214608 59 305 0.0 3.5 0.01 0.07 0.07 95 1005.3
20260506213054 59 188 0.0 1.7 0.01 0.06 0.06 95 1005.2
20260506211553 59 267 0.0 0.9 0.02 0.06 0.06 95 1005.5
20260506210051 59 336 0.0 3.5 0.03 0.06 0.06 95 1005.7
20260506204550 59 271 0.0 5.2 0.03 0.06 0.06 94 1005.8
20260506203050 60 160 0.0 2.6 0.02 0.05 0.05 94 1005.9
20260506201548 61 346 0.0 2.6 0.02 0.04 0.04 93 1005.8
20260506200120 61 331 0.0 0.9 0.02 0.03 0.03 93 1005.8
20260506194547 62 270 0.0 0.9 0.03 0.03 0.03 92 1005.8
20260506193046 62 322 0.0 0.9 0.03 0.03 0.03 91 1005.9
20260506191547 63 320 0.0 1.7 0.02 0.02 0.02 88 1005.8
20260506190045 64 306 0.0 2.6 0.01 0.01 0.01 84 1005.9
20260506184543 65 245 0.0 6.1 0.00 0.00 0.00 80 1006.0
20260506183042 67 10 0.0 3.5 0.00 0.00 0.00 74 1006.1
20260506181542 68 248 1.7 6.1 0.00 0.00 0.00 69 1006.2
20260506180047 69 300 0.0 6.1 0.00 0.00 0.00 67 1006.2
20260506174539 71 329 1.7 5.2 0.00 0.00 0.00 60 1006.3
20260506173038 71 348 0.9 5.2 0.00 0.00 0.00 59 1006.0
20260506171548 72 307 0.9 5.2 0.00 0.00 0.00 59 1006.2
20260506170036 71 265 0.9 3.5 0.00 0.00 0.00 62 1006.3
20260506164528 70 264 0.0 2.6 0.00 0.00 0.00 63 1006.6
20260506163034 70 334 0.0 5.2 0.00 0.00 0.00 64 1006.9
20260506161536 70 336 0.0 2.6 0.00 0.00 0.00 64 1007.0
20260506160024 70 315 0.9 3.5 0.00 0.00 0.00 65 1007.3
20260506154520 69 336 0.0 3.5 0.00 0.00 0.00 67 1007.6
20260506153020 69 313 0.0 3.5 0.00 0.00 0.00 67 1007.9
20260506151519 69 262 0.0 6.1 0.00 0.00 0.00 68 1008.1
20260506150023 70 258 0.0 8.7 0.00 0.00 0.00 66 1008.0
20260506144517 70 320 0.9 5.2 0.00 0.00 0.00 66 1008.4
20260506143016 70 307 0.0 3.5 0.00 0.00 0.00 67 1008.2
20260506141514 69 47 0.9 4.3 0.00 0.00 0.00 69 1007.9
20260506140011 68 212 0.0 4.3 0.00 0.00 0.00 73 1008.0
20260506134519 67 236 0.0 4.3 0.00 0.00 0.00 73 1008.1
20260506133004 66 227 0.0 3.5 0.00 0.00 0.00 77 1008.4
20260506131503 65 74 0.0 5.2 0.00 0.00 0.00 77 1008.7
20260506130059 64 298 0.0 2.6 0.00 0.00 0.00 78 1008.7
20260506124600 64 339 0.0 1.7 0.00 0.00 0.00 79 1008.8
20260506123057 63 264 0.0 3.5 0.00 0.00 0.00 79 1008.5
20260506121606 63 358 0.0 3.5 0.00 0.00 0.00 79 1008.9
20260506120055 63 286 0.0 2.6 0.00 0.00 0.00 81 1008.7
20260506114554 61 358 0.0 2.6 0.00 0.00 0.00 83 1008.9
20260506113052 61 277 0.0 1.7 0.00 0.00 0.00 83 1009.0
20260506111608 60 348 0.0 2.6 0.00 0.00 0.00 83 1009.2
20260506110052 60 279 0.0 1.7 0.00 0.00 0.00 85 1009.0
20260506104549 59 291 0.0 1.7 0.00 0.00 0.00 86 1009.1
20260506103048 58 257 0.0 0.9 0.00 0.00 0.00 85 1009.0
20260506101546 58 257 0.0 0.9 0.00 0.00 0.00 85 1009.0
20260506100046 58 300 0.0 0.9 0.00 0.00 0.00 85 1009.0
20260506094545 58 53 0.0 0.9 0.00 0.00 0.00 84 1009.0
20260506093051 58 234 0.0 0.9 0.00 0.00 0.00 84 1008.8
20260506091542 59 248 0.0 1.7 0.00 0.00 0.00 83 1008.9
20260506090040 59 317 0.0 0.0 0.00 0.00 0.00 82 1008.9
20260506084538 59 252 0.0 0.9 0.00 0.00 0.00 82 1008.8
20260506083037 59 262 0.0 1.7 0.00 0.00 0.00 81 1008.9
20260506081543 60 276 0.0 0.9 0.00 0.00 0.00 80 1008.9
20260506073034 60 261 0.0 1.7 0.00 0.00 0.00 78 1008.9
20260506071533 61 340 0.0 3.5 0.00 0.00 0.00 77 1008.8
20260506061534 61 148 0.0 0.9 0.00 0.00 0.00 73 1008.5
20260506044518 62 313 0.0 3.5 0.00 0.00 0.00 71 1008.9
20260506043015 62 260 0.0 1.7 0.00 0.00 0.00 70 1008.9
20260506041628 62 68 0.0 3.5 0.00 0.00 0.00 70 1008.8
20260506040011 62 6 0.0 0.9 0.00 0.00 0.00 69 1008.9
20260506034511 62 14 0.0 1.7 0.00 0.00 0.00 68 1008.9
20260506033015 63 62 0.0 0.9 0.00 0.00 0.00 67 1008.9
20260506031510 63 284 0.0 4.3 0.00 0.00 0.00 65 1008.9
20260506030012 64 222 0.0 0.9 0.00 0.00 0.00 65 1008.8
20260506024525 64 249 0.0 0.9 0.00 0.00 0.00 64 1008.9
20260506023008 65 209 0.0 0.9 0.00 0.00 0.00 64 1008.8
20260506021510 66 281 0.0 0.9 0.00 0.00 0.00 62 1008.8
20260506020007 66 281 0.0 0.9 0.00 0.00 0.00 60 1008.9
20260506014512 67 281 0.0 0.9 0.00 0.00 0.00 59 1008.7
20260506013006 68 295 0.0 1.7 0.00 0.00 0.00 57 1008.5
20260506011506 68 295 0.0 7.0 0.00 0.00 0.00 56 1008.5
20260506010005 69 261 0.0 1.7 0.00 0.00 0.00 55 1007.9
20260506004506 69 341 0.0 5.2 0.00 0.00 0.00 54 1007.8